Regional Weather Roundup
Issued by NWS

Home | Current Version | Previous Version | Text Only | Print | Product List | Glossary Off
Versions: 1 2 3 4 5 6 7 8 9 10 11 12 13 14 15 16 17 18 19 20 21 22 23 24 25 26 27 28 29 30 31 32 33 34 35 36 37 38 39 40 41 42 43 44 45 46 47 48 49 50

000
ASUS43 KIND 251209
RWRIN

WEATHER ROUNDUP FOR INDIANA
NATIONAL WEATHER SERVICE INDIANAPOLIS IN
800 AM EDT WED APR 25 2018

NOTE: "FAIR" INDICATES FEW OR NO CLOUDS BELOW 12,000 FEET WITH NO
SIGNIFICANT WEATHER AND/OR OBSTRUCTIONS TO VISIBILITY.

* - STATION DOES NOT REPORT WEATHER SUCH AS PRECIPITATION OR FOG.

+ - STATION NOT QUALITY CONTROLLED BY THE NATIONAL WEATHER SERVICE.
    USE DATA WITH CAUTION...ESPECIALLY DEWPOINT AND RELATIVE
    HUMIDITY OBSERVATIONS.

INZ001>003-010>013-019-020-251300-
NORTHWEST INDIANA

CITY           SKY/WX    TMP DP  RH WIND       PRES   REMARKS
GARY /AIRPORT/ PTSUNNY   43  36  75 N23       30.09R
KNOX *+        CLOUDY    45  39  81 NW10      30.03R
LA PORTE +     FAIR      42  36  80 N13G20    30.04R
6HR MIN TEMP:  42; 6HR MAX TEMP:  44;

MICHIGAN CITY+ FAIR      41  34  75 N12G18    30.06R
MONTICELLO +   CLOUDY    44  42  95 N7        30.02R
6HR MIN TEMP:  43; 6HR MAX TEMP:  49;

RENSSELAER +   FAIR      43  34  70 N10       30.05R
VALPARAISO     FAIR      44  35  70 N15G22    30.05R
6HR MIN TEMP:  43; 6HR MAX TEMP:  47;


$$

LMZ046-743>745-251300-
SOUTHERN LAKE MICHIGAN

STATION/POSITION TIME  TEMP    WIND        PRES    WAVE
                       AIR SEA DIR/SP/G            HT
                 (UTC) (F)     (DEG/KT/KT) (MB)    (FT)
BURNS HARBOR     1140   40     360/ 14/ 17 1018.6R
MICHIGAN CITY    1140   40     350/ 21/ 22   N/A

$$

INZ004-005-014>016-021>024-251300-
NORTH CENTRAL INDIANA

CITY           SKY/WX    TMP DP  RH WIND       PRES   REMARKS
ELKHART        CLOUDY    50  46  87 N9        30.00R
GOSHEN         CLOUDY    52  50  93 NW13      29.99R FOG
6HR MIN TEMP:  50; 6HR MAX TEMP:  53; 6HR PCP: TRACE;

LOGANSPORT +   FOG       45  45 100 NW8       30.02R VSB 1/4
PERU/GRISSOM   CLOUDY    49  49 100 NW12      29.98R FOG
6HR MIN TEMP:  49; 6HR MAX TEMP:  53;

ROCHESTER +    CLOUDY    50  50 100 N7        30.01R FOG
SOUTH BEND     PTSUNNY   46  40  79 N9        30.03R
6HR MIN TEMP:  46; 6HR MAX TEMP:  51;

WARSAW +       CLOUDY    50  50 100 NW8       29.99R FOG

$$

INZ006>009-017-018-025>027-251300-
NORTHEAST INDIANA

CITY           SKY/WX    TMP DP  RH WIND       PRES   REMARKS
ANGOLA *+      CLOUDY    52  46  82 N10       29.95R
AUBURN +       CLOUDY    52  48  87 N13G20    29.96R
FORT WAYNE     PTSUNNY   53  50  89 N10       29.96R
6HR MIN TEMP:  50; 6HR MAX TEMP:  53; 6HR PCP: TRACE;

HUNTINGTON +   PTSUNNY   52  50  95 N7        29.97R
6HR MIN TEMP:  50; 6HR MAX TEMP:  52;

KENDALLVILLE +   N/A     51  47  86 N14       29.96

$$

INZ028-029-035-036-043>045-051>053-251300-
WEST CENTRAL INDIANA

CITY           SKY/WX    TMP DP  RH WIND       PRES   REMARKS
CRAWFORDSVL +  CLOUDY    45  45 100 N7        30.03R FOG
6HR MIN TEMP:  45; 6HR MAX TEMP:  50;

GREENCASTLE +  CLOUDY    48  46  93 N8        30.01R FOG
LAFAYETTE      CLOUDY    44  43  96 N7        30.02R FOG
6HR MIN TEMP:  43; 6HR MAX TEMP:  51;

TERRE HAUTE    FAIR      49  47  93 N8        30.02R FOG
6HR MIN TEMP:  47; 6HR MAX TEMP:  51;


$$

INZ030>032-037>040-046>048-054>057-064-065-251300-
CENTRAL INDIANA

CITY           SKY/WX    TMP DP  RH WIND       PRES   REMARKS
COLUMBUS       CLOUDY    52 N/A N/A NW7       29.97R
FISHERS *+     CLOUDY    50  50 100 NW6       29.99R
FRANKFORT +    FOG       49  48  96 N10G17    30.02R VSB 1/4
6HR MIN TEMP:  49; 6HR MAX TEMP:  54;

GREENWOOD *+   CLOUDY    51  50  97 NW5       29.99R
6HR MIN TEMP:  49; 6HR MAX TEMP:  52;

INDIANAPOLIS   CLOUDY    51  49  92 NW10      29.99R FOG
6HR MIN TEMP:  47; 6HR MAX TEMP:  53;

-EAGLE CREEK   CLOUDY    51  48  89 NW9       29.98R FOG
6HR MIN TEMP:  50; 6HR MAX TEMP:  54;

KOKOMO +       CLOUDY    50  48  93 NW14      30.00R FOG
6HR MIN TEMP:  50; 6HR MAX TEMP:  53;

MARION +       CLOUDY    52  50  94 CALM      29.98R
MT COMFORT *+  CLOUDY    52  52 100 NW9       29.98R
SHELBYVILLE    CLOUDY    54  50  86 N9        29.96R
6HR MIN TEMP:  53; 6HR MAX TEMP:  54;

ZIONSVILLE +   CLOUDY    48  48 100 NW8       30.00R FOG
6HR MIN TEMP:  47; 6HR MAX TEMP:  51;


$$

INZ033-034-041-042-049-050-058-059-251300-
EAST CENTRAL INDIANA

CITY           SKY/WX    TMP DP  RH WIND       PRES   REMARKS
MUNCIE         CLOUDY    53  50  89 N10       29.95R
6HR MIN TEMP:  52; 6HR MAX TEMP:  54;

RICHMOND +     CLOUDY    50  50 100 N8        29.93S FOG

$$

INZ060-061-067>069-081>083-085>088-251300-
SOUTHWEST INDIANA

CITY           SKY/WX    TMP DP  RH WIND       PRES   REMARKS
EVANSVILLE     FAIR      50  50 100 CALM      30.01S FOG
6HR MIN TEMP:  46; 6HR MAX TEMP:  54;

HUNTINGBURG +  CLOUDY    52  52 100 NW6       30.01R FOG
6HR MIN TEMP:  48; 6HR MAX TEMP:  54; 6HR PCP: TRACE;

WASHINGTON +   FAIR      49  47  95 NW3       30.00R FOG
6HR MIN TEMP:  47; 6HR MAX TEMP:  53;


$$

INZ062-063-066-070>080-084-089>092-251300-
SOUTH CENTRAL AND SOUTHEAST INDIANA

CITY           SKY/WX    TMP DP  RH WIND       PRES   REMARKS
BATESVILLE +   CLOUDY    52  52 100 MISG      29.94R
BEDFORD +      CLOUDY    52  50  93 NW5       29.98R FOG
BLOOMINGTON    CLOUDY    50  50 100 NW3       29.99R FOG
6HR MIN TEMP:  46; 6HR MAX TEMP:  54;

FRENCH LICK *+ CLOUDY    50 N/A N/A CALM      30.00R
MADISON *+     CLOUDY    54  50  87 NW5       29.97R
NORTH VERNON + CLOUDY    50  48  93 NW6       29.96R
SEYMOUR +      CLOUDY    54  52  94 W3        29.97R FOG

$$





USA.gov is the U.S. government's official web portal to all federal, state and local government web resources and services.